{"data":{"norad_id":49416,"intl_designator":"2021-104J","name":"STARLINK-3133","alt_names":[],"object_type":"PAYLOAD","status":"ACTIVE","operator":null,"country":"US","launch_date":"2021-11-13","launch_site_code":"AFETR","launch_vehicle":null,"mission":null,"orbit_class":"UNKNOWN","rcs_meters":null,"size_class":null,"mass_kg":null,"dimensions":null,"purposes":["comms"],"wikipedia_slug":null,"has_3d_model":false,"image_url":null,"decayed_at":null,"tle_current":{"epoch":"2026-05-25T00:24:12.256128Z","epoch_age_seconds":84316,"freshness":"FRESH","line1":"1 49416U 21104J   26145.01680852 -.00000491  00000+0 -12757-4 0  9991","line2":"2 49416  53.2161 246.4757 0001396  73.8719 286.2427 15.08841104250159","mean_motion":15.08841104,"eccentricity":0.0001396,"inclination_deg":53.2161,"raan_deg":246.4757,"arg_perigee_deg":73.8719,"mean_anomaly_deg":286.2427,"bstar":-1.2757e-5,"rev_number":25015,"period_min":95.437484847311,"perigee_km":538.7742788486,"apogee_km":540.70575011105,"semimajor_km":6917.8770144798,"source":"CELESTRAK","updated_at":"2026-05-25T13:38:16.795865Z"}}}